| time (UTC) | temp C | wind direction | speed KPH | gust KPH | rain 1hr cm | rain 24hr cm | rain mn cm | humidity % | barometer mb |
| 20260508122538 | 16 | 0.0 | 0.0 | 0.00 | 0.00 | 0.00 | 59 | 1018.2 | |
| 20260508121534 | 17 | 0.0 | 0.0 | 0.00 | 0.00 | 0.00 | 57 | 1018.0 | |
| 20260508120532 | 16 | 0.0 | 0.0 | 0.00 | 0.00 | 0.00 | 61 | 1018.0 | |
| 20260508115528 | 16 | 0.0 | 0.0 | 0.00 | 0.00 | 0.00 | 61 | 1018.1 | |
| 20260508114525 | 16 | 0.0 | 0.0 | 0.00 | 0.00 | 0.00 | 62 | 1018.0 | |
| 20260508113543 | 16 | 0.0 | 0.0 | 0.00 | 0.00 | 0.00 | 65 | 1017.9 | |
| 20260508112519 | 15 | 0.0 | 0.0 | 0.00 | 0.00 | 0.00 | 67 | 1018.0 | |
| 20260508111516 | 14 | 0.0 | 0.0 | 0.00 | 0.00 | 0.00 | 67 | 1017.9 | |
| 20260508110632 | 13 | 0.0 | 0.0 | 0.00 | 0.00 | 0.00 | 68 | 1017.9 | |
| 20260508105610 | 14 | 0.0 | 0.0 | 0.00 | 0.00 | 0.00 | 65 | 1017.8 | |
| 20260508104606 | 15 | 0.0 | 0.0 | 0.00 | 0.00 | 0.00 | 63 | 1017.8 | |
| 20260508103603 | 15 | 0.0 | 0.0 | 0.00 | 0.00 | 0.00 | 62 | 1017.7 | |
| 20260508102559 | 15 | 0.0 | 0.0 | 0.00 | 0.00 | 0.00 | 63 | 1017.7 | |
| 20260508101556 | 15 | 0.0 | 0.0 | 0.00 | 0.00 | 0.00 | 64 | 1017.7 | |
| 20260508100553 | 15 | 0.0 | 0.0 | 0.00 | 0.00 | 0.00 | 63 | 1017.7 | |
| 20260508095550 | 15 | 0.0 | 0.0 | 0.00 | 0.00 | 0.00 | 62 | 1017.7 | |
| 20260508094546 | 16 | 0 | 0.0 | 8.0 | 0.00 | 0.00 | 0.00 | 59 | 1017.7 |
| 20260508093543 | 16 | 0.0 | 0.0 | 0.00 | 0.00 | 0.00 | 61 | 1017.5 | |
| 20260508092540 | 16 | 0.0 | 0.0 | 0.00 | 0.00 | 0.00 | 61 | 1017.4 | |
| 20260508091537 | 15 | 0.0 | 0.0 | 0.00 | 0.00 | 0.00 | 64 | 1017.3 | |
| 20260508090534 | 15 | 0.0 | 0.0 | 0.00 | 0.00 | 0.00 | 62 | 1017.4 | |
| 20260508085531 | 16 | 0.0 | 0.0 | 0.00 | 0.00 | 0.00 | 60 | 1017.3 | |
| 20260508084527 | 16 | 0.0 | 0.0 | 0.00 | 0.00 | 0.00 | 61 | 1017.2 | |
| 20260508083524 | 16 | 0.0 | 0.0 | 0.00 | 0.00 | 0.00 | 60 | 1017.2 | |
| 20260508082521 | 16 | 0.0 | 0.0 | 0.00 | 0.00 | 0.00 | 61 | 1017.1 | |
| 20260508081517 | 15 | 0.0 | 0.0 | 0.00 | 0.00 | 0.00 | 62 | 1017.0 | |
| 20260508080615 | 15 | 0.0 | 0.0 | 0.00 | 0.00 | 0.00 | 66 | 1016.9 | |
| 20260508075611 | 15 | 0.0 | 0.0 | 0.00 | 0.00 | 0.00 | 68 | 1017.0 | |
| 20260508074608 | 14 | 0.0 | 0.0 | 0.00 | 0.00 | 0.00 | 69 | 1016.8 | |
| 20260508073605 | 13 | 0.0 | 0.0 | 0.00 | 0.00 | 0.00 | 71 | 1016.6 | |
| 20260508072602 | 13 | 0.0 | 0.0 | 0.00 | 0.00 | 0.00 | 73 | 1016.5 | |
| 20260508071559 | 12 | 0.0 | 0.0 | 0.00 | 0.00 | 0.00 | 73 | 1016.5 | |
| 20260508070555 | 12 | 0.0 | 0.0 | 0.00 | 0.00 | 0.00 | 75 | 1016.5 | |
| 20260508065552 | 12 | 0.0 | 0.0 | 0.00 | 0.00 | 0.00 | 78 | 1016.4 | |
| 20260508064609 | 11 | 0.0 | 0.0 | 0.00 | 0.00 | 0.00 | 81 | 1016.3 | |
| 20260508063545 | 11 | 0.0 | 0.0 | 0.00 | 0.00 | 0.00 | 82 | 1016.2 | |
| 20260508062542 | 10 | 0.0 | 0.0 | 0.00 | 0.00 | 0.00 | 84 | 1016.0 | |
| 20260508061559 | 10 | 0.0 | 0.0 | 0.00 | 0.00 | 0.00 | 85 | 1016.0 | |
| 20260508060536 | 10 | 0.0 | 0.0 | 0.00 | 0.00 | 0.00 | 86 | 1015.9 | |
| 20260508055553 | 10 | 0.0 | 0.0 | 0.00 | 0.00 | 0.00 | 86 | 1015.7 | |
| 20260508054529 | 9 | 0.0 | 0.0 | 0.00 | 0.00 | 0.00 | 87 | 1015.7 | |
| 20260508053547 | 9 | 0.0 | 0.0 | 0.00 | 0.00 | 0.00 | 87 | 1015.7 | |
| 20260508052523 | 8 | 0.0 | 0.0 | 0.00 | 0.00 | 0.00 | 88 | 1015.8 | |
| 20260508051520 | 8 | 0.0 | 0.0 | 0.00 | 0.00 | 0.00 | 87 | 1015.7 | |
| 20260508050538 | 8 | 0.0 | 0.0 | 0.00 | 0.00 | 0.00 | 87 | 1015.7 | |
| 20260508045614 | 8 | 0.0 | 0.0 | 0.00 | 0.00 | 0.00 | 86 | 1015.6 | |
| 20260508044651 | 8 | 0.0 | 0.0 | 0.00 | 0.00 | 0.00 | 85 | 1015.5 | |
| 20260508043607 | 8 | 0.0 | 0.0 | 0.00 | 0.00 | 0.00 | 85 | 1015.5 | |
| 20260508042604 | 8 | 0.0 | 0.0 | 0.00 | 0.00 | 0.00 | 85 | 1015.4 | |
| 20260508041601 | 8 | 0.0 | 0.0 | 0.00 | 0.00 | 0.00 | 85 | 1015.4 | |
| 20260508040557 | 8 | 0.0 | 0.0 | 0.00 | 0.00 | 0.00 | 84 | 1015.3 | |
| 20260508035615 | 8 | 0.0 | 0.0 | 0.00 | 0.00 | 0.00 | 84 | 1015.3 | |
| 20260508034551 | 8 | 0.0 | 0.0 | 0.00 | 0.00 | 0.00 | 84 | 1015.3 | |
| 20260508033548 | 8 | 0.0 | 0.0 | 0.00 | 0.00 | 0.00 | 83 | 1015.3 | |
| 20260508032545 | 8 | 0.0 | 0.0 | 0.00 | 0.00 | 0.00 | 83 | 1015.3 | |
| 20260508031542 | 8 | 0.0 | 0.0 | 0.00 | 0.00 | 0.00 | 84 | 1015.3 | |
| 20260508030538 | 8 | 0.0 | 0.0 | 0.00 | 0.00 | 0.00 | 84 | 1015.3 | |
| 20260508025535 | 8 | 0.0 | 0.0 | 0.00 | 0.00 | 0.00 | 83 | 1015.3 | |
| 20260508024532 | 8 | 0.0 | 0.0 | 0.00 | 0.00 | 0.00 | 83 | 1015.3 | |
| 20260508023529 | 8 | 0.0 | 0.0 | 0.00 | 0.00 | 0.00 | 82 | 1015.3 | |
| 20260508022525 | 8 | 0.0 | 0.0 | 0.00 | 0.00 | 0.00 | 81 | 1015.2 | |
| 20260508021522 | 8 | 0.0 | 0.0 | 0.00 | 0.00 | 0.00 | 79 | 1015.2 | |
| 20260508020519 | 8 | 0.0 | 0.0 | 0.00 | 0.00 | 0.00 | 77 | 1015.1 | |
| 20260508015516 | 8 | 0.0 | 0.0 | 0.00 | 0.00 | 0.00 | 75 | 1015.0 | |
| 20260508014613 | 9 | 0.0 | 0.0 | 0.00 | 0.00 | 0.00 | 74 | 1015.0 | |
| 20260508013610 | 10 | 0.0 | 0.0 | 0.00 | 0.00 | 0.00 | 74 | 1015.0 | |
| 20260508012607 | 10 | 0.0 | 0.0 | 0.00 | 0.00 | 0.00 | 72 | 1015.0 | |
| 20260508011623 | 10 | 0.0 | 0.0 | 0.00 | 0.00 | 0.00 | 72 | 1015.1 | |
| 20260508010620 | 11 | 0.0 | 0.0 | 0.00 | 0.00 | 0.00 | 71 | 1015.1 | |
| 20260508005557 | 11 | 0.0 | 0.0 | 0.00 | 0.00 | 0.00 | 70 | 1015.2 | |
| 20260508004553 | 11 | 0.0 | 0.0 | 0.00 | 0.00 | 0.00 | 70 | 1015.0 | |
| 20260508003610 | 11 | 0.0 | 0.0 | 0.00 | 0.00 | 0.00 | 70 | 1015.1 | |
| 20260508002607 | 11 | 0.0 | 0.0 | 0.00 | 0.00 | 0.00 | 71 | 1015.1 | |
| 20260508001544 | 11 | 0.0 | 0.0 | 0.00 | 0.00 | 0.00 | 71 | 1015.2 | |
| 20260508000541 | 11 | 0.0 | 0.0 | 0.00 | 0.00 | 0.00 | 71 | 1015.3 | |
| 20260507235558 | 11 | 0.0 | 0.0 | 0.00 | 0.00 | 0.00 | 71 | 1015.3 | |
| 20260507234535 | 11 | 0.0 | 0.0 | 0.00 | 0.00 | 0.00 | 70 | 1015.2 | |
| 20260507233531 | 11 | 0.0 | 0.0 | 0.00 | 0.00 | 0.00 | 69 | 1015.1 | |
| 20260507232528 | 11 | 0.0 | 0.0 | 0.00 | 0.00 | 0.00 | 69 | 1015.2 | |
| 20260507231525 | 11 | 0.0 | 0.0 | 0.00 | 0.00 | 0.00 | 69 | 1015.1 | |
| 20260507230521 | 11 | 0.0 | 0.0 | 0.00 | 0.00 | 0.00 | 68 | 1015.1 | |
| 20260507225519 | 12 | 0.0 | 0.0 | 0.00 | 0.00 | 0.00 | 67 | 1015.0 | |
| 20260507224516 | 12 | 0.0 | 0.0 | 0.00 | 0.00 | 0.00 | 66 | 1014.9 | |
| 20260507223612 | 12 | 0.0 | 0.0 | 0.00 | 0.00 | 0.00 | 66 | 1014.8 | |
| 20260507222629 | 12 | 0.0 | 0.0 | 0.00 | 0.00 | 0.00 | 67 | 1014.7 | |
| 20260507221606 | 12 | 0.0 | 0.0 | 0.00 | 0.00 | 0.00 | 67 | 1014.7 | |
| 20260507220603 | 12 | 0.0 | 0.0 | 0.00 | 0.00 | 0.00 | 67 | 1014.7 | |
| 20260507215559 | 12 | 0.0 | 0.0 | 0.00 | 0.00 | 0.00 | 67 | 1014.6 | |
| 20260507214617 | 12 | 0.0 | 0.0 | 0.00 | 0.00 | 0.00 | 67 | 1014.6 | |
| 20260507213553 | 12 | 0.0 | 0.0 | 0.00 | 0.00 | 0.00 | 67 | 1014.5 | |
| 20260507212550 | 12 | 0.0 | 0.0 | 0.00 | 0.00 | 0.00 | 66 | 1014.4 | |
| 20260507211548 | 12 | 0.0 | 0.0 | 0.00 | 0.00 | 0.00 | 66 | 1014.3 | |
| 20260507210544 | 12 | 0.0 | 0.0 | 0.00 | 0.00 | 0.00 | 66 | 1014.1 | |
| 20260507205601 | 12 | 0.0 | 0.0 | 0.00 | 0.00 | 0.00 | 65 | 1014.1 | |
| 20260507204538 | 12 | 0.0 | 0.0 | 0.00 | 0.00 | 0.00 | 64 | 1014.0 | |
| 20260507203614 | 12 | 0.0 | 0.0 | 0.00 | 0.00 | 0.00 | 64 | 1013.9 | |
| 20260507202552 | 12 | 0.0 | 0.0 | 0.00 | 0.00 | 0.00 | 63 | 1013.8 | |
| 20260507201528 | 13 | 0.0 | 0.0 | 0.00 | 0.00 | 0.00 | 63 | 1013.8 | |
| 20260507200545 | 13 | 0.0 | 0.0 | 0.00 | 0.00 | 0.00 | 63 | 1013.7 | |
| 20260507195521 | 13 | 0.0 | 0.0 | 0.00 | 0.00 | 0.00 | 63 | 1013.5 | |
| 20260507194538 | 13 | 0.0 | 0.0 | 0.00 | 0.00 | 0.00 | 62 | 1013.5 | |
| 20260507193535 | 13 | 0.0 | 0.0 | 0.00 | 0.00 | 0.00 | 62 | 1013.4 | |
| 20260507192632 | 13 | 0.0 | 0.0 | 0.00 | 0.00 | 0.00 | 60 | 1013.3 | |
| 20260507191608 | 14 | 0.0 | 0.0 | 0.00 | 0.00 | 0.00 | 59 | 1013.2 | |
| 20260507190606 | 14 | 0.0 | 0.0 | 0.00 | 0.00 | 0.00 | 58 | 1013.1 | |
| 20260507185602 | 15 | 0.0 | 0.0 | 0.00 | 0.00 | 0.00 | 57 | 1013.0 | |
| 20260507184619 | 15 | 0.0 | 0.0 | 0.00 | 0.00 | 0.00 | 56 | 1013.0 | |
| 20260507183556 | 15 | 0.0 | 0.0 | 0.00 | 0.00 | 0.00 | 53 | 1012.9 | |
| 20260507182613 | 15 | 0.0 | 0.0 | 0.00 | 0.00 | 0.00 | 52 | 1012.9 | |
| 20260507181549 | 15 | 0.0 | 0.0 | 0.00 | 0.00 | 0.00 | 52 | 1012.8 | |
| 20260507180546 | 15 | 0.0 | 0.0 | 0.00 | 0.00 | 0.00 | 51 | 1012.8 | |
| 20260507175543 | 15 | 0.0 | 0.0 | 0.00 | 0.00 | 0.00 | 51 | 1012.7 | |
| 20260507174539 | 15 | 0.0 | 0.0 | 0.00 | 0.00 | 0.00 | 50 | 1012.8 | |
| 20260507173536 | 15 | 0.0 | 0.0 | 0.00 | 0.00 | 0.00 | 51 | 1012.8 | |
| 20260507172533 | 15 | 0.0 | 0.0 | 0.00 | 0.00 | 0.00 | 58 | 1012.7 | |
| 20260507171530 | 15 | 0.0 | 0.0 | 0.00 | 0.00 | 0.00 | 60 | 1012.8 | |
| 20260507170527 | 15 | 0.0 | 0.0 | 0.00 | 0.00 | 0.00 | 61 | 1012.9 | |
| 20260507165524 | 15 | 0.0 | 0.0 | 0.00 | 0.00 | 0.00 | 61 | 1013.0 | |
| 20260507164520 | 15 | 0.0 | 0.0 | 0.00 | 0.00 | 0.00 | 61 | 1013.0 | |
| 20260507163517 | 15 | 0.0 | 0.0 | 0.00 | 0.00 | 0.00 | 59 | 1013.0 | |
| 20260507162614 | 15 | 0.0 | 0.0 | 0.00 | 0.00 | 0.00 | 58 | 1013.0 | |
| 20260507161612 | 16 | 0.0 | 0.0 | 0.00 | 0.00 | 0.00 | 52 | 1012.8 | |
| 20260507160608 | 16 | 0.0 | 0.0 | 0.00 | 0.00 | 0.00 | 50 | 1012.9 | |
| 20260507155605 | 16 | 0.0 | 0.0 | 0.00 | 0.00 | 0.00 | 45 | 1012.9 | |
| 20260507154602 | 16 | 0.0 | 0.0 | 0.00 | 0.00 | 0.00 | 45 | 1012.9 | |
| 20260507153639 | 17 | 0.0 | 0.0 | 0.00 | 0.00 | 0.00 | 43 | 1012.9 | |
| 20260507152556 | 16 | 0.0 | 0.0 | 0.00 | 0.00 | 0.00 | 43 | 1012.9 | |
| 20260507151552 | 16 | 0.0 | 0.0 | 0.00 | 0.00 | 0.00 | 42 | 1012.9 | |
| 20260507150549 | 17 | 0.0 | 0.0 | 0.00 | 0.00 | 0.00 | 42 | 1013.0 | |
| 20260507145546 | 16 | 0.0 | 0.0 | 0.00 | 0.00 | 0.00 | 43 | 1013.0 | |
| 20260507144543 | 17 | 0.0 | 0.0 | 0.00 | 0.00 | 0.00 | 40 | 1013.1 | |
| 20260507143539 | 17 | 0.0 | 0.0 | 0.00 | 0.00 | 0.00 | 44 | 1013.1 | |
| 20260507142536 | 16 | 0.0 | 0.0 | 0.00 | 0.00 | 0.00 | 45 | 1013.2 | |
| 20260507141533 | 16 | 0.0 | 0.0 | 0.00 | 0.00 | 0.00 | 48 | 1013.3 | |
| 20260507140530 | 16 | 0.0 | 0.0 | 0.00 | 0.00 | 0.00 | 52 | 1013.3 | |
| 20260507135526 | 16 | 0.0 | 0.0 | 0.00 | 0.00 | 0.00 | 53 | 1013.3 | |
| 20260507134523 | 17 | 0.0 | 0.0 | 0.00 | 0.00 | 0.00 | 48 | 1013.4 | |
| 20260507133520 | 17 | 0.0 | 0.0 | 0.00 | 0.00 | 0.00 | 39 | 1013.4 | |
| 20260507132517 | 18 | 0.0 | 0.0 | 0.00 | 0.00 | 0.00 | 37 | 1013.3 | |
| 20260507131614 | 18 | 0.0 | 0.0 | 0.00 | 0.00 | 0.00 | 36 | 1013.2 | |
| 20260507130611 | 18 | 0.0 | 0.0 | 0.00 | 0.00 | 0.00 | 37 | 1013.3 | |
| 20260507125607 | 17 | 0.0 | 0.0 | 0.00 | 0.00 | 0.00 | 38 | 1013.3 | |
| 20260507124604 | 16 | 0.0 | 0.0 | 0.00 | 0.00 | 0.00 | 40 | 1013.4 | |
| 20260507123601 | 16 | 0.0 | 0.0 | 0.00 | 0.00 | 0.00 | 41 | 1013.5 |